Weather History for TNCM - January, 2014

Change the Weather History Date:

Saturday, January 4, 2014

  Actual Average Record
Temperature  
Mean Temperature 79 °F -  
Max Temperature 82 °F 81 °F 86 °F (2002)
Min Temperature 76 °F 72 °F 64 °F (2000)
Cooling Degree Days 14    
Growing Degree Days 29 (Base 50)    
Moisture  
Dew Point 71 °F    
Average Humidity 74    
Maximum Humidity 83    
Minimum Humidity 66    
Precipitation  
Precipitation 0.08 in 0.08 in - ()
Sea Level Pressure  
Sea Level Pressure 30.04 in    
Wind  
Wind Speed 14 mph ()    
Max Wind Speed 21 mph    
Max Gust Speed 30 mph    
Visibility 7.5 miles    
Events Rain    
Averages and records for this station are not official NWS values.
T = Trace of Precipitation, MM = Missing Value Source: Averaged Metar Reports

Daily Weather History Graph

Daily Weather History Graph

Search for Another Location

Airport or City:

Trip Planner

Search our weather history database for the weather conditions in past years. The results will help you decide how hot, cold, wet, or windy it might be!

Date:

Astronomy

Jan. 04, 2014 Rise Set
Actual Time 6:44 AM AST 5:50 PM AST
Civil Twilight 6:21 AM AST 6:13 PM AST
Nautical Twilight 5:54 AM AST 6:40 PM AST
Astronomical Twilight 5:27 AM AST 7:07 PM AST
Moon 9:20 AM AST (1/4) 9:27 PM AST (1/4)
Length of Visible Light 11h 52m
Length of Day
11h 05m
Waxing Crescent, 15% of the Moon is Illuminated
Jan 4
Waxing Crescent
Jan 7
First Quarter
Jan 16
Full
Jan 24
Last Quarter
Jan 30
New

Hourly Weather History & Observations

Time (AST) Temp. Heat Index Dew Point Humidity Pressure Visibility Wind Dir Wind Speed Gust Speed Precip Events Conditions
12:00 AM 78.8 °F - 69.8 °F 74% 30.04 in 6.2 mi East 16.1 mph - N/A   Partly Cloudy
1:00 AM 78.8 °F - 69.8 °F 74% 30.04 in 6.2 mi East 15.0 mph - N/A   Scattered Clouds
2:00 AM 78 °F - 70 °F 71% 30.05 in 19 mi East 13.8 mph - -   Partly Cloudy
2:00 AM 78.8 °F - 69.8 °F 74% 30.04 in 6.2 mi East 13.8 mph - N/A   Scattered Clouds
3:00 AM 77.0 °F - 69.8 °F 78% 30.04 in 6.2 mi East 11.5 mph - N/A   Partly Cloudy
4:00 AM 77.0 °F - 69.8 °F 78% 30.04 in 6.2 mi East 11.5 mph - N/A   Partly Cloudy
5:00 AM 78 °F - 70 °F 69% 30.04 in 19 mi East 13.8 mph - -   Scattered Clouds
5:00 AM 78.8 °F - 69.8 °F 74% 30.04 in 6.2 mi East 13.8 mph - N/A   Partly Cloudy
6:00 AM 77.0 °F - 69.8 °F 78% 30.04 in 6.2 mi ENE 16.1 mph - N/A   Scattered Clouds
7:00 AM 78.8 °F - 69.8 °F 74% 30.04 in 6.2 mi ENE 17.3 mph - N/A   Scattered Clouds
8:00 AM 79 °F - 71 °F 70% 30.08 in 16 mi East 13.8 mph - -   Partly Cloudy
8:00 AM 78.8 °F - 71.6 °F 78% 30.06 in 6.2 mi East 15.0 mph - N/A Rain Light Rain Showers
9:00 AM 80.6 °F 84.6 °F 71.6 °F 74% 30.09 in 6.2 mi East 12.7 mph 25.3 mph N/A   Scattered Clouds
9:30 AM 80.6 °F 84.6 °F 71.6 °F 74% 30.09 in 6.2 mi East 11.5 mph - N/A Rain Light Rain Showers
10:00 AM 80.6 °F 84.6 °F 71.6 °F 74% 30.09 in 6.2 mi East 15.0 mph - N/A Rain Light Rain Showers
11:00 AM 82 °F - 72 °F 66% 30.09 in 2 mi East 19.6 mph - - Rain Heavy Rain Showers
11:00 AM 82.4 °F 87.2 °F 71.6 °F 70% 30.08 in 2.5 mi East 13.8 mph - N/A Rain Rain Showers
11:27 AM 78.8 °F - 73.4 °F 83% 30.06 in 6.2 mi East 13.8 mph 26.5 mph N/A Rain Light Rain Showers
12:00 PM 80.6 °F 84.6 °F 71.6 °F 74% 30.04 in 6.2 mi East 19.6 mph - N/A   Mostly Cloudy
12:38 PM 82.4 °F 88.2 °F 73.4 °F 74% 30.04 in - East 15.0 mph 28.8 mph N/A Rain Rain Showers
1:00 PM 80.6 °F 85.4 °F 73.4 °F 79% 30.04 in 6.2 mi East 18.4 mph - N/A   Partly Cloudy
1:08 PM 80.6 °F 85.4 °F 73.4 °F 79% 30.04 in 2.2 mi East 17.3 mph 29.9 mph N/A Rain Rain Showers
2:00 PM 81 °F - 72 °F 68% 30.02 in 12 mi East 15.0 mph - -   Partly Cloudy
2:00 PM 80.6 °F 84.6 °F 71.6 °F 74% 30.01 in 6.2 mi East 15.0 mph - N/A   Mostly Cloudy
3:00 PM 80.6 °F 84.6 °F 71.6 °F 74% 30.01 in 6.2 mi East 20.7 mph - N/A Rain Light Rain Showers
4:00 PM 80.6 °F 84.6 °F 71.6 °F 74% 29.98 in 6.2 mi East 18.4 mph - N/A   Scattered Clouds
5:00 PM 80 °F - 71 °F 68% 30.01 in 12 mi East 18.4 mph - -   Partly Cloudy
5:00 PM 80.6 °F 84.6 °F 71.6 °F 74% 30.01 in 6.2 mi East 18.4 mph - N/A   Scattered Clouds
6:00 PM 78.8 °F - 71.6 °F 78% 30.01 in 6.2 mi ESE 18.4 mph 29.9 mph N/A   Scattered Clouds
7:00 PM 78.8 °F - 71.6 °F 78% 30.01 in 6.2 mi East 18.4 mph - N/A   Mostly Cloudy
8:00 PM 80 °F - 71 °F 68% 30.04 in 12 mi ESE 18.4 mph - -   Mist
8:00 PM 78.8 °F - 71.6 °F 78% 30.04 in 6.2 mi ESE 18.4 mph - N/A   Scattered Clouds
9:00 PM 78.8 °F - 71.6 °F 78% 30.04 in 6.2 mi East 19.6 mph - N/A   Scattered Clouds
10:00 PM 78.8 °F - 71.6 °F 78% 30.04 in 6.2 mi ESE 16.1 mph - N/A   Scattered Clouds
11:00 PM 79 °F - 71 °F 70% 30.05 in 12 mi ESE 18.4 mph - -   Partly Cloudy
11:00 PM 78.8 °F - 71.6 °F 78% 30.04 in 6.2 mi East 18.4 mph - N/A   Scattered Clouds